Location: Unspecified
(0.0000°N, 0.0000°E)
Time: 20:38:10
(UTC+02:00)

Cosmos 1538 Rocket - Visible Passes

Search period start: 27 June 2016 00:00
Search period end: 07 July 2016 00:00
Orbit: 752 x 792 km, 74.0° (Epoch: 26 June)

Date Brightness Start Highest point End Pass type
(mag) Time Alt. Az. Time Alt. Az. Time Alt. Az.
27 Jun 6.9 23:15:05 10° NNW 23:15:21 11° NNW 23:15:21 11° NNW visible
28 Jun 6.1 22:39:16 10° N 22:40:47 20° N 22:40:47 20° N visible
29 Jun 5.6 22:03:58 10° N 22:06:17 24° NNE 22:06:17 24° NNE visible
30 Jun 5.7 21:29:23 10° NNE 21:31:50 18° ENE 21:31:50 18° ENE visible
30 Jun 6.6 23:10:48 10° NW 23:12:14 16° WNW 23:12:14 16° WNW visible
01 Jul 5.3 22:34:16 10° NNW 22:37:52 37° WNW 22:37:52 37° WNW visible
02 Jul 3.9 21:58:22 10° N 22:03:32 83° NNE 22:03:32 83° NNE visible
03 Jul 4.4 21:22:58 10° N 21:28:03 43° ENE 21:29:17 37° ESE visible
03 Jul 6.9 23:08:35 10° W 23:09:42 11° W 23:09:42 11° W visible
04 Jul 5.3 20:48:15 10° NNE 20:52:21 22° ENE 20:55:05 15° ESE visible
04 Jul 6.0 22:30:07 10° NW 22:34:13 22° WSW 22:35:30 20° WSW visible
05 Jul 5.1 21:53:28 10° NNW 21:58:31 43° WSW 22:01:22 23° SSW visible
06 Jul 4.0 21:17:28 10° NNW 21:22:50 86° WSW 21:27:18 15° S visible
